Date String (YYYY-MM-DD hh:mm:ss) UTC,Instrument flags,absolute air pressure of the measurement (hPa),sample flow rate (lpm),inlet stack bypass flow (lpm),air temperature of the measurement (°C),ambient temperature measured by the external sensor (°C),aerosol sample conditioner tube jacket temperature (°C),OPC LED temperature (°C),internal box temperature (°C),relative humidity of the measurement (%),span deviation,mass concentration of particles derived from Lorenz-Mie calculation of OPC scattering (μg/m³),mass concentration of particles derived from Lorenz-Mie calculation of OPC scattering (μg/m³),mass concentration of particles derived from Lorenz-Mie calculation of OPC scattering (μg/m³)
DateTimeUTC,F1_M11,P_M11,Q1_M11,Q2_M11,T1_M11,T2_M11,T3_M11,T4_M11,T5_M11,U1_M11,ZSPAN_M11,X0_M11,X2_M11,X1_M11
2024-01-08 01:00:00,SystemResetWarning,0814.3,5.00,000.00,020.2,019.2,000.0,028.6,021.5,7.7,0000.0,0010.20,0003.14,0002.04
2024-01-08 01:01:00,SystemResetWarning,0814.3,5.01,000.00,020.2,019.2,000.0,028.6,021.5,7.7,0000.0,0009.96,0003.14,0002.01
2024-01-08 01:02:00,SystemResetWarning,0814.3,5.00,000.00,020.2,019.2,000.0,028.6,021.5,7.7,0000.0,0008.86,0003.15,0001.98
2024-01-08 01:03:00,SystemResetWarning,0814.3,5.00,000.00,020.2,019.2,000.0,028.6,021.5,7.8,0000.0,0008.65,0003.16,0001.96
2024-01-08 01:04:00,SystemResetWarning,0814.3,5.00,000.00,020.2,019.2,000.0,028.6,021.5,7.8,0000.0,0008.62,0003.13,0001.93
2024-01-08 01:05:00,SystemResetWarning,0814.3,5.00,000.00,020.2,019.2,000.0,028.6,021.5,7.8,0000.0,0009.07,0003.09,0001.91
2024-01-08 01:06:00,SystemResetWarning,0814.3,5.00,000.00,020.2,019.1,000.0,028.6,021.5,7.8,0000.0,0009.11,0003.03,0001.88
2024-01-08 01:07:00,SystemResetWarning,0814.4,5.00,000.00,020.2,019.1,000.0,028.6,021.4,7.8,0000.0,0008.98,0002.95,0001.85
2024-01-08 01:08:00,SystemResetWarning,0814.3,4.99,000.00,020.2,019.1,000.0,028.6,021.4,7.9,0000.0,0009.04,0003.01,0001.84
2024-01-08 01:09:00,SystemResetWarning,0814.4,5.00,000.00,020.2,019.1,000.0,028.6,021.4,7.9,0000.0,0008.24,0002.98,0001.83
2024-01-08 01:10:00,SystemResetWarning,0814.3,5.00,000.00,020.2,019.1,000.0,028.6,021.4,7.9,0000.0,0008.21,0002.95,0001.82
2024-01-08 01:11:00,SystemResetWarning,0814.3,5.00,000.00,020.2,019.1,000.0,028.5,021.4,7.9,0000.0,0007.54,0002.99,0001.82
2024-01-08 01:12:00,SystemResetWarning,0814.3,5.00,000.00,020.2,019.1,000.0,028.5,021.4,8.0,0000.0,0007.49,0002.92,0001.82
2024-01-08 01:13:00,SystemResetWarning,0814.3,5.00,000.00,020.2,019.1,000.0,028.5,021.4,8.0,0000.0,0007.69,0002.87,0001.83
2024-01-08 01:14:00,SystemResetWarning,0814.3,5.00,000.00,020.2,019.1,000.0,028.5,021.4,7.9,0000.0,0007.66,0002.88,0001.83
2024-01-08 01:15:00,SystemResetWarning,0814.4,5.00,000.00,020.2,019.1,000.0,028.5,021.4,8.0,0000.0,0007.63,0002.90,0001.85
2024-01-08 01:16:00,SystemResetWarning,0814.4,5.00,000.00,020.1,019.1,000.0,028.5,021.4,8.0,0000.0,0007.35,0002.93,0001.87
2024-01-08 01:17:00,SystemResetWarning,0814.4,5.00,000.00,020.1,019.1,000.0,028.5,021.4,8.0,0000.0,0007.63,0002.98,0001.90
2024-01-08 01:18:00,SystemResetWarning,0814.4,5.00,000.00,020.1,019.1,000.0,028.5,021.4,8.0,0000.0,0007.63,0003.01,0001.94
2024-01-08 01:19:00,SystemResetWarning,0814.5,5.00,000.00,020.1,019.1,000.0,028.5,021.4,8.1,0000.0,0007.28,0002.95,0001.97
2024-01-08 01:20:00,SystemResetWarning,0814.5,5.00,000.00,020.1,019.1,000.0,028.5,021.4,8.1,0000.0,0007.70,0002.89,0001.98
2024-01-08 01:21:00,SystemResetWarning,0814.5,5.00,000.00,020.1,019.1,000.0,028.5,021.4,8.1,0000.0,0007.88,0002.90,0001.99
2024-01-08 01:22:00,SystemResetWarning,0814.5,5.00,000.00,020.1,019.1,000.0,028.5,021.4,8.1,0000.0,0007.71,0002.89,0002.00
2024-01-08 01:23:00,SystemResetWarning,0814.5,5.00,000.00,020.1,019.1,000.0,028.5,021.4,8.2,0000.0,0007.81,0002.92,0002.02
2024-01-08 01:24:00,SystemResetWarning,0814.5,5.00,000.00,020.1,019.1,000.0,028.5,021.4,8.2,0000.0,0007.51,0002.96,0002.02
2024-01-08 01:25:00,SystemResetWarning,0814.5,5.00,000.00,020.1,019.1,000.0,028.5,021.4,8.2,0000.0,0008.58,0002.95,0002.02
2024-01-08 01:26:00,SystemResetWarning,0814.5,5.00,000.00,020.1,019.1,000.0,028.5,021.4,8.2,0000.0,0008.95,0002.93,0002.00
2024-01-08 01:27:00,SystemResetWarning,0814.5,5.00,000.00,020.1,019.1,000.0,028.5,021.4,8.2,0000.0,0008.82,0002.85,0001.97
2024-01-08 01:28:00,SystemResetWarning,0814.5,5.00,000.00,020.1,019.1,000.0,028.5,021.4,8.3,0000.0,0008.33,0002.80,0001.93
2024-01-08 01:29:00,SystemResetWarning,0814.5,5.00,000.00,020.1,019.1,000.0,028.5,021.4,8.3,0000.0,0008.58,0002.84,0001.90
2024-01-08 01:30:00,SystemResetWarning,0814.5,5.00,000.00,020.1,019.1,000.0,028.5,021.4,8.3,0000.0,0008.72,0002.85,0001.86
2024-01-08 01:31:00,SystemResetWarning,0814.5,5.00,000.00,020.1,019.1,000.0,028.4,021.3,8.3,0000.0,0008.57,0002.87,0001.83
2024-01-08 01:32:00,SystemResetWarning,0814.5,5.00,000.00,020.1,019.1,000.0,028.4,021.3,8.3,0000.0,0008.33,0002.82,0001.81
2024-01-08 01:33:00,SystemResetWarning,0814.5,5.00,000.00,020.1,019.2,000.0,028.4,021.3,8.3,0000.0,0008.61,0002.78,0001.78
2024-01-08 01:34:00,SystemResetWarning,0814.5,5.00,000.00,020.1,019.2,000.0,028.4,021.3,8.3,0000.0,0008.51,0002.75,0001.75
2024-01-08 01:35:00,SystemResetWarning,0814.5,4.99,000.00,020.1,019.2,000.0,028.4,021.3,8.3,0000.0,0008.46,0002.70,0001.74
2024-01-08 01:36:00,SystemResetWarning,0814.6,4.99,000.00,020.0,019.2,000.0,028.4,021.3,8.4,0000.0,0007.42,0002.63,0001.73
2024-01-08 01:37:00,SystemResetWarning,0814.6,5.01,000.00,020.0,019.2,000.0,028.4,021.3,8.4,0000.0,0007.30,0002.61,0001.75
2024-01-08 01:38:00,SystemResetWarning,0814.6,5.00,000.00,020.0,019.2,000.0,028.4,021.3,8.4,0000.0,0007.37,0002.60,0001.75
2024-01-08 01:39:00,SystemResetWarning,0814.6,5.00,000.00,020.0,019.2,000.0,028.4,021.3,8.4,0000.0,0007.86,0002.63,0001.75
2024-01-08 01:40:00,SystemResetWarning,0814.6,5.01,000.00,020.0,019.2,000.0,028.4,021.3,8.5,0000.0,0007.76,0002.59,0001.74
2024-01-08 01:41:00,SystemResetWarning,0814.6,5.00,000.00,020.0,019.2,000.0,028.4,021.3,8.5,0000.0,0007.57,0002.55,0001.73
2024-01-08 01:42:00,SystemResetWarning,0814.7,4.99,000.00,020.0,019.2,000.0,028.4,021.2,8.5,0000.0,0007.36,0002.54,0001.74
2024-01-08 01:43:00,SystemResetWarning,0814.6,4.99,000.00,020.0,019.2,000.0,028.4,021.3,8.5,0000.0,0007.48,0002.53,0001.75
2024-01-08 01:44:00,SystemResetWarning,0814.6,4.99,000.00,020.0,019.2,000.0,028.4,021.3,8.6,0000.0,0007.05,0002.55,0001.77
2024-01-08 01:45:00,SystemResetWarning,0814.7,5.01,000.00,020.0,019.2,000.0,028.4,021.2,8.5,0000.0,0007.77,0002.54,0001.76
2024-01-08 01:46:00,SystemResetWarning,0814.7,5.01,000.00,020.0,019.2,000.0,028.4,021.2,8.6,0000.0,0008.37,0002.59,0001.78
2024-01-08 01:47:00,SystemResetWarning,0814.8,4.99,000.00,020.0,019.2,000.0,028.4,021.3,8.5,0000.0,0008.39,0002.59,0001.79
2024-01-08 01:48:00,SystemResetWarning,0814.8,4.99,000.00,020.0,019.2,000.0,028.4,021.2,8.5,0000.0,0007.90,0002.57,0001.77
2024-01-08 01:49:00,SystemResetWarning,0814.8,5.00,000.00,020.0,019.2,000.0,028.4,021.3,8.6,0000.0,0007.84,0002.57,0001.77
2024-01-08 01:50:00,SystemResetWarning,0814.8,5.01,000.00,020.0,019.2,000.0,028.4,021.2,8.6,0000.0,0007.94,0002.60,0001.78
2024-01-08 01:51:00,SystemResetWarning,0814.8,5.01,000.00,020.0,019.2,000.0,028.3,021.2,8.6,0000.0,0008.26,0002.64,0001.81
2024-01-08 01:52:00,SystemResetWarning,0814.8,4.99,000.00,020.0,019.2,000.0,028.3,021.2,8.6,0000.0,0008.24,0002.64,0001.84
2024-01-08 01:53:00,SystemResetWarning,0814.8,4.99,000.00,020.0,019.2,000.0,028.3,021.2,8.6,0000.0,0008.29,0002.62,0001.86
2024-01-08 01:54:00,SystemResetWarning,0814.8,4.99,000.00,020.0,019.2,000.0,028.3,021.2,8.7,0000.0,0008.73,0002.66,0001.88
2024-01-08 01:55:00,SystemResetWarning,0814.9,5.01,000.00,019.9,019.1,000.0,028.3,021.2,8.7,0000.0,0008.93,0002.71,0001.90
2024-01-08 01:56:00,SystemResetWarning,0814.9,5.01,000.00,019.9,019.2,000.0,028.3,021.2,8.5,0000.0,0008.41,0002.77,0001.93
2024-01-08 01:57:00,SystemResetWarning,0814.9,5.00,000.00,019.9,019.2,000.0,028.3,021.2,8.5,0000.0,0008.26,0002.82,0001.93
2024-01-08 01:58:00,SystemResetWarning,0814.9,4.99,000.00,019.9,019.2,000.0,028.3,021.2,8.6,0000.0,0008.71,0002.86,0001.95
2024-01-08 01:59:00,SystemResetWarning,0814.9,4.99,000.00,019.9,019.2,000.0,028.3,021.2,8.6,0000.0,0008.87,0002.94,0001.98
